Flag for U.S.A. Weather past 2 weeks in French Lick, Indiana, U.S.A.

Now
55 °F

Passing clouds.


Feels Like: 52 °F
Forecast: 50 / 68 °F
Wind: 9 mph from North

Location: Monroe County Airport

Current Time: Sep 22, 2014 at 11:19:51 AM

Latest Report: Sep 22, 2014 at 10:53 AM


Visibility: 10 mi

Pressure: 30.27 "Hg

Humidity: 67%

Dew point: 44 °F

Location of French LickLocation

Historic Weather in French Lick — Graph

°F

French Lick temperature yesterday

Maximum temperature yesterday: 74 °F (at 1:53 AM)
Minimum temperature yesterday: 53 °F (at 11:53 PM)
Average temperature yesterday: 68 °F

Past Weeks' High & Low Weather Summary

 TemperatureHumidityPressure
High82 °F (Sep 10, 4:53 PM)100% (Sep 18, 11:53 PM)30.34 "Hg (Sep 18, 11:53 PM)
Low41 °F (Sep 14, 6:53 AM)38% (Sep 21, 4:53 PM)29.71 "Hg (Sep 10, 7:53 PM)
Average61 °F78%30.08 "Hg
* Reported Sep 7 9:53 AM — Sep 22 9:53 AM, French Lick, Weather by CustomWeather, © 2014

Note: Actual official high and low records may vary slightly from our data, if they occured in-between our weather recording intervals... More about our weather records

Advertising

French Lick weather history for previous 24 hours

 ConditionsComfort  
Time TempWeatherWind HumidityBarometerVisibility
9:53 AM
Sep 22
54 °FScattered clouds.12 mph77%30.25 "Hg10 mi
8:53 AM52 °FSunny.5 mph86%30.22 "Hg10 mi
7:53 AM48 °FClear.No wind89%30.21 "Hg10 mi
6:53 AM45 °FClear.No wind97%30.18 "Hg7 mi
5:53 AM49 °FClear.No wind90%30.15 "Hg10 mi
4:53 AM51 °FClear.3 mph86%30.12 "Hg10 mi
3:53 AM52 °FClear.No wind89%30.11 "Hg10 mi
2:53 AM54 °FPassing clouds.5 mph83%30.11 "Hg10 mi
1:53 AM56 °FOvercast.6 mph84%30.10 "Hg10 mi
12:53 AM51 °FPassing clouds.No wind92%30.09 "Hg10 mi
11:53 PM
Sep 21
53 °FPassing clouds.No wind89%30.08 "Hg10 mi
10:53 PM55 °FClear.No wind80%30.07 "Hg10 mi
9:53 PM57 °FClear.No wind74%30.06 "Hg10 mi
8:53 PM59 °FClear.3 mph69%30.03 "Hg10 mi
7:53 PM62 °FSunny.3 mph58%30.00 "Hg10 mi
6:53 PM66 °FSunny.10 mph54%29.97 "Hg10 mi
5:53 PM71 °FPassing clouds.12 mph44%29.94 "Hg10 mi
4:53 PM73 °FPassing clouds.9 mph38%29.91 "Hg10 mi
3:53 PM73 °FPassing clouds.12 mph40%29.90 "Hg10 mi
2:53 PM72 °FPassing clouds.15 mph43%29.90 "Hg10 mi
1:53 PM73 °FSunny.10 mph41%29.90 "Hg10 mi
12:53 PM72 °FSunny.13 mph44%29.92 "Hg10 mi
11:53 AM70 °FSunny.14 mph49%29.92 "Hg10 mi
Weather by CustomWeather, © 2014

See weather overviewHow to use our weather pages